TimeEST,TemperatureF,Dew PointF,Humidity,Sea Level PressureIn,VisibilityMPH,Wind Direction,Wind SpeedMPH,Gust SpeedMPH,PrecipitationIn,Events,Conditions,WindDirDegrees,DateUTC
12:15 AM,55.4,51.8,88,30.29,10.0,NE,8.1,-,N/A,,Scattered Clouds,50,2013-01-08 05:15:00
12:35 AM,55.4,51.8,88,30.29,10.0,NE,6.9,-,N/A,,Clear,40,2013-01-08 05:35:00
12:55 AM,55.4,51.8,88,30.28,10.0,NNE,5.8,-,N/A,,Clear,30,2013-01-08 05:55:00
1:15 AM,55.4,51.8,88,30.27,10.0,NE,8.1,-,N/A,,Clear,50,2013-01-08 06:15:00
1:35 AM,55.4,51.8,88,30.27,10.0,NE,9.2,-,N/A,,Mostly Cloudy,40,2013-01-08 06:35:00
1:55 AM,55.4,53.6,94,30.27,10.0,NE,8.1,-,N/A,,Overcast,40,2013-01-08 06:55:00
2:15 AM,55.4,53.6,94,30.27,10.0,NNE,8.1,-,N/A,,Overcast,30,2013-01-08 07:15:00
2:35 AM,55.4,53.6,94,30.27,10.0,NNE,6.9,-,N/A,,Overcast,30,2013-01-08 07:35:00
2:55 AM,55.4,51.8,88,30.27,10.0,NNE,8.1,-,N/A,,Overcast,30,2013-01-08 07:55:00
3:15 AM,55.4,51.8,88,30.26,10.0,NE,8.1,-,N/A,,Overcast,40,2013-01-08 08:15:00
3:35 AM,55.4,51.8,88,30.26,10.0,NE,8.1,-,N/A,,Overcast,50,2013-01-08 08:35:00
3:55 AM,55.4,53.6,94,30.26,10.0,NE,5.8,-,N/A,,Overcast,40,2013-01-08 08:55:00
4:15 AM,55.4,53.6,94,30.26,10.0,NE,4.6,-,N/A,,Overcast,40,2013-01-08 09:15:00
4:35 AM,55.4,53.6,94,30.26,10.0,NE,6.9,-,N/A,,Overcast,50,2013-01-08 09:35:00
4:55 AM,55.4,53.6,94,30.26,10.0,NE,8.1,-,N/A,,Overcast,50,2013-01-08 09:55:00
5:15 AM,55.4,53.6,94,30.26,10.0,NNE,4.6,-,N/A,,Overcast,30,2013-01-08 10:15:00
5:35 AM,55.4,53.6,94,30.26,10.0,NE,8.1,-,N/A,,Overcast,50,2013-01-08 10:35:00
5:55 AM,55.4,53.6,94,30.26,10.0,NE,8.1,-,N/A,,Mostly Cloudy,40,2013-01-08 10:55:00
6:15 AM,55.4,53.6,94,30.27,10.0,NE,6.9,-,N/A,,Mostly Cloudy,50,2013-01-08 11:15:00
6:35 AM,55.4,53.6,94,30.27,10.0,NE,6.9,-,N/A,,Scattered Clouds,40,2013-01-08 11:35:00
6:55 AM,55.4,53.6,94,30.28,10.0,NNE,5.8,-,N/A,,Clear,30,2013-01-08 11:55:00
7:15 AM,55.4,53.6,94,30.29,10.0,NE,5.8,-,N/A,,Scattered Clouds,40,2013-01-08 12:15:00
7:35 AM,55.4,53.6,94,30.30,10.0,NE,6.9,-,N/A,,Scattered Clouds,40,2013-01-08 12:35:00
7:55 AM,55.4,53.6,94,30.30,10.0,NE,6.9,-,N/A,,Scattered Clouds,40,2013-01-08 12:55:00
8:15 AM,55.4,53.6,94,30.31,10.0,NE,8.1,-,N/A,,Clear,40,2013-01-08 13:15:00
8:35 AM,57.2,55.4,94,30.32,10.0,NE,8.1,-,N/A,,Clear,40,2013-01-08 13:35:00
8:55 AM,59.0,55.4,88,30.32,10.0,NE,8.1,-,N/A,,Scattered Clouds,40,2013-01-08 13:55:00
9:15 AM,59.0,55.4,88,30.33,10.0,NE,9.2,-,N/A,,Scattered Clouds,40,2013-01-08 14:15:00
9:35 AM,60.8,55.4,82,30.34,10.0,NE,9.2,-,N/A,,Clear,40,2013-01-08 14:35:00
9:55 AM,60.8,55.4,82,30.34,10.0,NE,8.1,-,N/A,,Scattered Clouds,50,2013-01-08 14:55:00
10:15 AM,62.6,55.4,77,30.35,10.0,NNE,9.2,-,N/A,,Overcast,30,2013-01-08 15:15:00
10:35 AM,62.6,55.4,77,30.35,10.0,NNE,9.2,-,N/A,,Overcast,30,2013-01-08 15:35:00
10:55 AM,62.6,55.4,77,30.34,10.0,NE,9.2,-,N/A,,Mostly Cloudy,50,2013-01-08 15:55:00
11:15 AM,62.6,55.4,77,30.34,10.0,NE,9.2,-,N/A,,Overcast,40,2013-01-08 16:15:00
11:35 AM,62.6,57.2,82,30.33,10.0,NNE,6.9,-,N/A,,Overcast,30,2013-01-08 16:35:00
11:55 AM,62.6,57.2,82,30.33,10.0,NE,9.2,-,N/A,,Overcast,40,2013-01-08 16:55:00
12:15 PM,62.6,55.4,77,30.32,10.0,NNE,9.2,-,N/A,,Overcast,20,2013-01-08 17:15:00
12:35 PM,62.6,57.2,82,30.32,10.0,NNE,5.8,-,N/A,,Overcast,30,2013-01-08 17:35:00
12:55 PM,62.6,57.2,82,30.31,10.0,NE,9.2,-,N/A,,Overcast,50,2013-01-08 17:55:00
1:15 PM,64.4,57.2,77,30.31,10.0,NE,6.9,-,N/A,,Overcast,40,2013-01-08 18:15:00
1:35 PM,64.4,57.2,77,30.30,10.0,NE,8.1,-,N/A,,Overcast,40,2013-01-08 18:35:00
1:55 PM,64.4,59.0,83,30.29,10.0,NE,8.1,-,N/A,,Overcast,40,2013-01-08 18:55:00
2:15 PM,68.0,59.0,73,30.29,10.0,NE,8.1,-,N/A,,Overcast,40,2013-01-08 19:15:00
2:35 PM,68.0,59.0,73,30.29,10.0,ENE,9.2,-,N/A,,Overcast,60,2013-01-08 19:35:00
2:55 PM,68.0,59.0,73,30.27,10.0,NNE,10.4,-,N/A,,Overcast,30,2013-01-08 19:55:00
3:15 PM,69.8,59.0,68,30.28,10.0,NE,9.2,-,N/A,,Mostly Cloudy,50,2013-01-08 20:15:00
3:35 PM,68.0,59.0,73,30.28,10.0,NE,8.1,-,N/A,,Scattered Clouds,40,2013-01-08 20:35:00
3:55 PM,68.0,59.0,73,30.28,10.0,NNE,9.2,-,N/A,,Clear,20,2013-01-08 20:55:00
4:15 PM,68.0,59.0,73,30.28,10.0,NE,10.4,-,N/A,,Clear,40,2013-01-08 21:15:00
4:35 PM,64.4,59.0,83,30.27,10.0,NE,6.9,-,N/A,,Clear,40,2013-01-08 21:35:00
4:55 PM,64.4,57.2,77,30.28,10.0,NE,8.1,-,N/A,,Clear,50,2013-01-08 21:55:00
5:15 PM,62.6,57.2,82,30.28,10.0,NE,6.9,-,N/A,,Clear,40,2013-01-08 22:15:00
5:35 PM,62.6,57.2,82,30.29,10.0,NNE,4.6,-,N/A,,Scattered Clouds,30,2013-01-08 22:35:00
5:55 PM,62.6,57.2,82,30.29,10.0,NE,5.8,-,N/A,,Scattered Clouds,40,2013-01-08 22:55:00
6:15 PM,62.6,57.2,82,30.29,10.0,NE,8.1,-,N/A,,Scattered Clouds,50,2013-01-08 23:15:00
6:35 PM,62.6,57.2,82,30.29,10.0,NE,8.1,-,N/A,,Scattered Clouds,40,2013-01-08 23:35:00
6:55 PM,62.6,57.2,82,30.29,10.0,NE,6.9,-,N/A,,Clear,40,2013-01-08 23:55:00
7:15 PM,62.6,57.2,82,30.29,10.0,ENE,6.9,-,N/A,,Scattered Clouds,60,2013-01-09 00:15:00
7:35 PM,60.8,57.2,88,30.29,10.0,NE,6.9,-,N/A,,Mostly Cloudy,50,2013-01-09 00:35:00
7:55 PM,60.8,59.0,94,30.29,10.0,NE,5.8,-,N/A,,Scattered Clouds,40,2013-01-09 00:55:00
8:15 PM,60.8,59.0,94,30.30,10.0,NE,4.6,-,N/A,,Mostly Cloudy,50,2013-01-09 01:15:00
8:35 PM,62.6,59.0,88,30.30,10.0,NNE,4.6,-,N/A,,Overcast,30,2013-01-09 01:35:00
8:55 PM,60.8,59.0,94,30.30,10.0,Calm,Calm,-,N/A,,Overcast,0,2013-01-09 01:55:00
9:15 PM,62.6,59.0,88,30.30,10.0,North,3.5,-,N/A,,Overcast,10,2013-01-09 02:15:00
9:35 PM,62.6,59.0,88,30.30,10.0,North,4.6,-,N/A,,Overcast,10,2013-01-09 02:35:00
9:55 PM,62.6,60.8,94,30.32,10.0,North,3.5,-,N/A,,Overcast,10,2013-01-09 02:55:00
10:15 PM,62.6,60.8,94,30.32,10.0,Calm,Calm,-,N/A,,Overcast,0,2013-01-09 03:15:00
10:35 PM,62.6,60.8,94,30.32,10.0,North,4.6,-,N/A,,Overcast,10,2013-01-09 03:35:00
10:55 PM,62.6,60.8,94,30.31,10.0,NE,3.5,-,N/A,,Overcast,50,2013-01-09 03:55:00
11:15 PM,62.6,60.8,94,30.31,10.0,NNE,3.5,-,N/A,,Overcast,20,2013-01-09 04:15:00
11:35 PM,62.6,60.8,94,30.30,10.0,NE,4.6,-,N/A,,Overcast,40,2013-01-09 04:35:00
11:55 PM,62.6,60.8,94,30.30,10.0,NNE,4.6,-,N/A,,Mostly Cloudy,20,2013-01-09 04:55:00